カタログに戻る

FENGYUN 1C DEB

運用中SSO
NORAD 30379·DEBRIS·🇨🇳 China

打ち上げ May 10, 1999 から Taiyuan Satellite Launch Center

Loading…

次のパス (今後24時間)

TLE

最新Source: Space-Track

元期: Sep 14, 2026, 06:48 UTC

1 30379U 99025ACS 26257.28360250  .00000205  00000-0  14435-3 0  9992
2 30379  98.7499 268.7766 0035526 220.1090 204.5788 14.08282350  6886

AllMySatでFENGYUN 1C DEBをリアルタイム追跡

Download on the App Store